Overview Statistics Trail Chart Weather Telemetry Raw packets
 

This is the latest recevied weather packets stored in our database for station/object N4BBA. If no packets are shown the sender has not sent any weather packets the latest 10 day(s).

<< 7 8 9 10 11 12 13 >>
Time Temp. Humidity Pressure Rain* Wind** Luminosity Snow
1777722209 11.11° C 95% 1011.3 hPa 0 mm - 19 W/m² -
1777721906 11.11° C 95% 1011.3 hPa 1.78 mm - 18 W/m² -
1777721603 11.11° C 95% 1011.3 hPa 0 mm - 18 W/m² -
1777721301 11.11° C 95% 1011.2 hPa 1.78 mm - 13 W/m² -
1777720998 11.11° C 95% 1011.3 hPa 1.78 mm - 11 W/m² -
1777720696 11.11° C 95% 1011.5 hPa 0 mm - 9 W/m² -
1777720393 11.67° C 95% 1011.5 hPa 1.27 mm - 7 W/m² -
1777720090 11.67° C 95% 1011.3 hPa 1.27 mm - 7 W/m² -
1777719802 11.67° C 95% 1011.4 hPa 1.78 mm - 6 W/m² -
1777719486 11.67° C 95% 1011.6 hPa 1.78 mm - 5 W/m² -
1777719182 11.67° C 95% 1011.5 hPa 0 mm - 4 W/m² -
1777718880 11.67° C 95% 1011.4 hPa 1.27 mm - 4 W/m² -
1777718577 11.67° C 95% 1011.6 hPa 1.27 mm - 2 W/m² -
1777718274 11.67° C 95% 1011.6 hPa 0 mm - 2 W/m² -
1777717972 11.67° C 95% 1011.5 hPa 1.78 mm - 1 W/m² -
1777717669 11.67° C 95% 1011.6 hPa 1.78 mm - 1 W/m² -
1777717365 11.67° C 95% 1011.3 hPa 0 mm - 0 W/m² -
1777717064 11.67° C 95% 1011.6 hPa 0 mm - 0 W/m² -
1777716761 11.67° C 95% 1011.6 hPa 0 mm - 0 W/m² -
1777716459 11.67° C 95% 1011.3 hPa 0 mm - 0 W/m² -
1777716174 11.67° C 95% 1011.5 hPa 0 mm - 0 W/m² -
1777715855 11.67° C 95% 1011.4 hPa 0 mm - 0 W/m² -
1777715552 11.67° C 96% 1011.5 hPa 0 mm - 0 W/m² -
1777715250 11.67° C 96% 1011.4 hPa 0 mm - 0 W/m² -
1777714948 11.67° C 96% 1011.4 hPa 0 mm - 0 W/m² -

* Rain latest hour (hover to see other rain measurements)
** Current wind speed in m/s (hover to see current wind gust speed)